Location: Black Swamp Observatory
(41.3920°N, 84.1250°W)
Time: 19:51:47
(UTC-04:00)

Courier 1B - Pass Details

Date: 04 February 2022
Orbit: 962 x 1209 km, 28.3° (Epoch: 20 May)

Event Time Altitude Azimuth Distance (km) Brightness Sun altitude
Rises 21:12:09 0° 256° (WSW) 4,014 11.5 -36.9°
Reaches altitude 10° 21:16:45 10° 231° (SW) 3,093 10.5 -37.7°
Maximum altitude 21:20:05 13° 205° (SSW) 2,867 10.0 -38.3°
Enters shadow 21:20:36 13° 201° (SSW) 2,876 10.0 -38.4°
